Time,TemperatureF,DewpointF,PressureIn,WindDirection,WindDirectionDegrees,WindSpeedMPH,WindSpeedGustMPH,Humidity,HourlyPrecipIn,Conditions,Clouds,dailyrainin,SolarRadiationWatts/m^2,SoftwareType,DateUTC
2013-04-20 00:01:00,46.8,45.7,30.15,NNW,327,0.0,0.0,96,0.00,,,0.00,0,WeatherCatV1.14B232,2013-04-20 07:01:00,
2013-04-20 00:06:00,46.8,45.7,30.15,NNW,327,0.0,0.0,96,0.00,,,0.00,0,WeatherCatV1.14B232,2013-04-20 07:06:00,
2013-04-20 00:11:00,46.8,45.7,30.15,NNW,327,0.0,0.0,96,0.00,,,0.00,0,WeatherCatV1.14B232,2013-04-20 07:11:00,
2013-04-20 00:16:00,46.8,45.7,30.15,NNW,327,0.0,0.0,96,0.00,,,0.00,0,WeatherCatV1.14B232,2013-04-20 07:16:00,
2013-04-20 00:21:00,46.8,45.7,30.15,NNW,327,0.0,0.0,96,0.00,,,0.00,0,WeatherCatV1.14B232,2013-04-20 07:21:00,
2013-04-20 00:26:00,46.8,45.7,30.15,NNW,327,0.0,0.0,96,0.00,,,0.00,0,WeatherCatV1.14B232,2013-04-20 07:26:00,
2013-04-20 00:31:00,46.8,45.7,30.16,NNW,327,0.0,0.0,96,0.00,,,0.00,0,WeatherCatV1.14B232,2013-04-20 07:31:00,
2013-04-20 00:36:00,46.8,45.7,30.16,NNW,327,0.0,0.0,96,0.00,,,0.00,0,WeatherCatV1.14B232,2013-04-20 07:36:00,
2013-04-20 00:41:00,46.8,46.0,30.16,NNW,327,0.0,0.0,97,0.00,,,0.00,0,WeatherCatV1.14B232,2013-04-20 07:41:00,
2013-04-20 00:46:00,47.0,46.2,30.17,NNW,327,0.0,0.0,97,0.00,,,0.00,0,WeatherCatV1.14B232,2013-04-20 07:46:00,
2013-04-20 00:51:00,47.0,46.2,30.17,NNW,327,0.0,0.0,97,0.00,,,0.00,0,WeatherCatV1.14B232,2013-04-20 07:51:00,
2013-04-20 00:56:00,46.8,46.0,30.17,NNW,335,0.0,1.0,97,0.00,,,0.00,0,WeatherCatV1.14B232,2013-04-20 07:56:00,
2013-04-20 01:01:00,46.8,46.0,30.17,East,99,1.0,1.0,97,0.00,,,0.00,0,WeatherCatV1.14B232,2013-04-20 08:01:00,
2013-04-20 01:06:00,46.8,46.0,30.17,East,99,0.0,0.0,97,0.00,,,0.00,0,WeatherCatV1.14B232,2013-04-20 08:06:00,
2013-04-20 01:11:00,46.8,46.0,30.17,East,99,0.0,0.0,97,0.00,,,0.00,0,WeatherCatV1.14B232,2013-04-20 08:11:00,
2013-04-20 01:16:00,46.8,46.0,30.17,East,99,0.0,0.0,97,0.00,,,0.00,0,WeatherCatV1.14B232,2013-04-20 08:16:00,
2013-04-20 01:21:00,46.8,46.0,30.17,East,99,0.0,0.0,97,0.00,,,0.00,0,WeatherCatV1.14B232,2013-04-20 08:21:00,
2013-04-20 01:26:00,46.8,46.0,30.17,East,99,0.0,0.0,97,0.00,,,0.00,0,WeatherCatV1.14B232,2013-04-20 08:26:00,
2013-04-20 01:31:00,46.8,46.0,30.17,East,101,0.0,0.0,97,0.00,,,0.00,0,WeatherCatV1.14B232,2013-04-20 08:31:00,
2013-04-20 01:36:00,46.8,46.0,30.17,East,100,0.0,0.0,97,0.00,,,0.00,0,WeatherCatV1.14B232,2013-04-20 08:36:00,
2013-04-20 01:41:00,46.8,46.0,30.17,East,101,0.0,1.0,97,0.00,,,0.00,0,WeatherCatV1.14B232,2013-04-20 08:41:00,
2013-04-20 01:46:00,46.8,46.0,30.17,East,101,0.0,0.0,97,0.00,,,0.00,0,WeatherCatV1.14B232,2013-04-20 08:46:00,
2013-04-20 01:51:00,46.8,46.0,30.17,East,101,0.0,0.0,97,0.00,,,0.00,0,WeatherCatV1.14B232,2013-04-20 08:51:00,
2013-04-20 01:56:00,46.8,46.0,30.17,East,101,0.0,0.0,97,0.00,,,0.00,0,WeatherCatV1.14B232,2013-04-20 08:56:00,
2013-04-20 02:01:00,46.8,46.0,30.17,East,100,0.0,0.0,97,0.00,,,0.00,0,WeatherCatV1.14B232,2013-04-20 09:01:00,
2013-04-20 02:06:00,46.8,46.0,30.17,East,101,0.0,0.0,97,0.00,,,0.00,0,WeatherCatV1.14B232,2013-04-20 09:06:00,
2013-04-20 02:11:00,46.8,46.0,30.17,East,101,0.0,0.0,97,0.00,,,0.00,0,WeatherCatV1.14B232,2013-04-20 09:11:00,
2013-04-20 02:16:00,46.8,46.0,30.17,East,100,0.0,0.0,97,0.00,,,0.00,0,WeatherCatV1.14B232,2013-04-20 09:16:00,
2013-04-20 02:21:00,46.8,46.0,30.17,East,101,0.0,0.0,97,0.00,,,0.00,0,WeatherCatV1.14B232,2013-04-20 09:21:00,
2013-04-20 02:26:00,46.8,46.0,30.17,East,101,0.0,0.0,97,0.00,,,0.00,0,WeatherCatV1.14B232,2013-04-20 09:26:00,
2013-04-20 02:31:00,46.8,46.0,30.16,East,101,0.0,0.0,97,0.00,,,0.00,0,WeatherCatV1.14B232,2013-04-20 09:31:00,
2013-04-20 02:36:00,46.8,46.0,30.16,East,101,0.0,1.0,97,0.00,,,0.01,0,WeatherCatV1.14B232,2013-04-20 09:36:00,
2013-04-20 02:41:00,46.8,46.0,30.16,East,101,0.0,0.0,97,0.00,,,0.01,0,WeatherCatV1.14B232,2013-04-20 09:41:00,
2013-04-20 02:46:00,46.8,46.0,30.16,East,101,0.0,0.0,97,0.00,,,0.01,0,WeatherCatV1.14B232,2013-04-20 09:46:00,
2013-04-20 02:51:00,46.8,46.0,30.16,East,100,0.0,0.0,97,0.00,,,0.01,0,WeatherCatV1.14B232,2013-04-20 09:51:00,
2013-04-20 02:56:00,46.8,46.0,30.16,East,101,0.0,0.0,97,0.00,,,0.01,0,WeatherCatV1.14B232,2013-04-20 09:56:00,
2013-04-20 03:01:00,46.8,46.0,30.16,East,101,0.0,0.0,97,0.00,,,0.01,0,WeatherCatV1.14B232,2013-04-20 10:01:00,
2013-04-20 03:06:00,46.8,46.0,30.16,East,101,0.0,0.0,97,0.00,,,0.01,0,WeatherCatV1.14B232,2013-04-20 10:06:00,
2013-04-20 03:11:00,46.7,45.9,30.16,East,101,0.0,0.0,97,0.00,,,0.01,0,WeatherCatV1.14B232,2013-04-20 10:11:00,
2013-04-20 03:16:00,46.8,46.0,30.17,East,101,0.0,0.0,97,0.00,,,0.02,0,WeatherCatV1.14B232,2013-04-20 10:16:00,
2013-04-20 03:21:00,46.7,45.9,30.17,NNW,332,2.0,4.0,97,0.08,,,0.03,0,WeatherCatV1.14B232,2013-04-20 10:21:00,
2013-04-20 03:26:00,46.7,45.9,30.17,NNW,334,0.0,1.0,97,0.08,,,0.03,0,WeatherCatV1.14B232,2013-04-20 10:26:00,
2013-04-20 03:31:00,46.5,45.7,30.17,NNW,334,0.0,0.0,97,0.08,,,0.04,0,WeatherCatV1.14B232,2013-04-20 10:31:00,
2013-04-20 03:36:00,46.4,45.6,30.17,NW,321,0.0,3.0,97,0.11,,,0.05,0,WeatherCatV1.14B232,2013-04-20 10:36:00,
2013-04-20 03:41:00,46.4,45.6,30.17,NW,321,0.0,0.0,97,0.08,,,0.06,0,WeatherCatV1.14B232,2013-04-20 10:41:00,
2013-04-20 03:46:00,46.2,45.4,30.17,NW,321,0.0,0.0,97,0.08,,,0.06,0,WeatherCatV1.14B232,2013-04-20 10:46:00,
2013-04-20 03:51:00,46.2,45.4,30.17,NW,321,0.0,0.0,97,0.05,,,0.06,0,WeatherCatV1.14B232,2013-04-20 10:51:00,
2013-04-20 03:56:00,46.1,45.3,30.17,NW,321,0.0,0.0,97,0.04,,,0.06,0,WeatherCatV1.14B232,2013-04-20 10:56:00,
2013-04-20 04:01:00,46.1,45.3,30.17,NW,321,0.0,0.0,97,0.00,,,0.06,0,WeatherCatV1.14B232,2013-04-20 11:01:00,
2013-04-20 04:06:00,46.0,45.2,30.17,NW,321,0.0,0.0,97,0.00,,,0.06,0,WeatherCatV1.14B232,2013-04-20 11:06:00,
2013-04-20 04:11:00,46.0,45.2,30.17,NW,321,0.0,0.0,97,0.00,,,0.07,0,WeatherCatV1.14B232,2013-04-20 11:11:00,
2013-04-20 04:16:00,46.0,45.2,30.17,NW,321,0.0,0.0,97,0.00,,,0.07,0,WeatherCatV1.14B232,2013-04-20 11:16:00,
2013-04-20 04:21:00,45.8,45.0,30.17,NW,321,0.0,0.0,97,0.00,,,0.07,0,WeatherCatV1.14B232,2013-04-20 11:21:00,
2013-04-20 04:26:00,45.8,45.0,30.17,NW,321,0.0,0.0,97,0.00,,,0.07,0,WeatherCatV1.14B232,2013-04-20 11:26:00,
2013-04-20 04:31:00,45.8,45.0,30.18,NW,321,0.0,0.0,97,0.00,,,0.07,0,WeatherCatV1.14B232,2013-04-20 11:31:00,
2013-04-20 04:36:00,45.8,45.0,30.18,NW,321,0.0,0.0,97,0.00,,,0.07,0,WeatherCatV1.14B232,2013-04-20 11:36:00,
2013-04-20 04:41:00,45.8,45.0,30.18,NW,321,0.0,0.0,97,0.00,,,0.07,0,WeatherCatV1.14B232,2013-04-20 11:41:00,
2013-04-20 04:46:00,45.8,45.0,30.18,NW,321,0.0,0.0,97,0.00,,,0.07,0,WeatherCatV1.14B232,2013-04-20 11:46:00,
2013-04-20 04:51:00,45.8,45.0,30.18,NW,321,0.0,0.0,97,0.00,,,0.08,0,WeatherCatV1.14B232,2013-04-20 11:51:00,
2013-04-20 04:56:00,45.7,44.9,30.18,NW,321,0.0,0.0,97,0.09,,,0.09,0,WeatherCatV1.14B232,2013-04-20 11:56:00,
2013-04-20 05:01:00,45.7,44.9,30.18,NW,321,0.0,0.0,97,0.07,,,0.09,0,WeatherCatV1.14B232,2013-04-20 12:01:00,
2013-04-20 05:06:00,45.7,44.9,30.18,NW,321,0.0,0.0,97,0.05,,,0.09,0,WeatherCatV1.14B232,2013-04-20 12:06:00,
2013-04-20 05:11:00,45.7,44.9,30.18,NW,321,0.0,0.0,97,0.04,,,0.10,0,WeatherCatV1.14B232,2013-04-20 12:11:00,
2013-04-20 05:16:00,45.7,44.9,30.18,NW,321,0.0,0.0,97,0.04,,,0.10,0,WeatherCatV1.14B232,2013-04-20 12:16:00,
2013-04-20 05:21:00,45.5,44.7,30.18,NW,321,0.0,0.0,97,0.04,,,0.10,0,WeatherCatV1.14B232,2013-04-20 12:21:00,
2013-04-20 05:26:00,45.5,44.7,30.18,NW,321,0.0,0.0,97,0.00,,,0.10,0,WeatherCatV1.14B232,2013-04-20 12:26:00,
2013-04-20 05:31:00,45.5,44.7,30.18,NW,321,0.0,0.0,97,0.00,,,0.11,0,WeatherCatV1.14B232,2013-04-20 12:31:00,
2013-04-20 05:36:00,45.5,44.7,30.18,NW,321,0.0,0.0,97,0.00,,,0.11,0,WeatherCatV1.14B232,2013-04-20 12:36:00,
2013-04-20 05:41:00,45.5,44.7,30.18,NW,321,0.0,0.0,97,0.00,,,0.11,0,WeatherCatV1.14B232,2013-04-20 12:41:00,
2013-04-20 05:46:00,45.4,44.6,30.19,NW,321,0.0,0.0,97,0.04,,,0.12,0,WeatherCatV1.14B232,2013-04-20 12:46:00,
2013-04-20 05:51:00,45.4,44.6,30.19,NW,321,0.0,0.0,97,0.04,,,0.12,0,WeatherCatV1.14B232,2013-04-20 12:51:00,
2013-04-20 05:56:00,45.4,44.6,30.19,NW,321,0.0,0.0,97,0.04,,,0.12,0,WeatherCatV1.14B232,2013-04-20 12:56:00,
2013-04-20 06:01:00,45.4,44.6,30.20,NW,321,0.0,0.0,97,0.00,,,0.12,0,WeatherCatV1.14B232,2013-04-20 13:01:00,
2013-04-20 06:06:00,45.4,44.6,30.20,NW,321,0.0,0.0,97,0.00,,,0.13,0,WeatherCatV1.14B232,2013-04-20 13:06:00,
2013-04-20 06:11:00,45.4,44.6,30.20,NW,321,0.0,0.0,97,0.00,,,0.13,0,WeatherCatV1.14B232,2013-04-20 13:11:00,
2013-04-20 06:16:00,45.4,44.6,30.20,NW,321,0.0,0.0,97,0.00,,,0.13,0,WeatherCatV1.14B232,2013-04-20 13:16:00,
2013-04-20 06:21:00,45.4,44.6,30.20,NW,321,0.0,0.0,97,0.04,,,0.14,0,WeatherCatV1.14B232,2013-04-20 13:21:00,
2013-04-20 06:26:00,45.4,44.6,30.20,NW,321,0.0,0.0,97,0.04,,,0.14,0,WeatherCatV1.14B232,2013-04-20 13:26:00,
2013-04-20 06:31:00,45.4,44.6,30.20,NW,321,0.0,0.0,97,0.04,,,0.14,0,WeatherCatV1.14B232,2013-04-20 13:31:00,
2013-04-20 06:36:00,45.4,44.6,30.20,NW,321,0.0,0.0,97,0.00,,,0.14,5,WeatherCatV1.14B232,2013-04-20 13:36:00,
2013-04-20 06:41:00,45.4,44.6,30.20,NW,321,0.0,0.0,97,0.00,,,0.15,5,WeatherCatV1.14B232,2013-04-20 13:41:00,
2013-04-20 06:46:00,45.4,44.6,30.20,NW,321,0.0,0.0,97,0.00,,,0.15,5,WeatherCatV1.14B232,2013-04-20 13:46:00,
2013-04-20 06:51:00,45.4,44.6,30.20,NW,321,0.0,0.0,97,0.00,,,0.15,5,WeatherCatV1.14B232,2013-04-20 13:51:00,
2013-04-20 06:56:00,45.4,44.6,30.20,NW,321,0.0,0.0,97,0.00,,,0.15,5,WeatherCatV1.14B232,2013-04-20 13:56:00,
2013-04-20 07:01:00,45.4,44.6,30.20,NW,321,0.0,0.0,97,0.00,,,0.16,7,WeatherCatV1.14B232,2013-04-20 14:01:00,
2013-04-20 07:06:00,45.4,44.6,30.20,NW,321,0.0,0.0,97,0.00,,,0.16,7,WeatherCatV1.14B232,2013-04-20 14:06:00,
2013-04-20 07:11:00,45.4,44.6,30.20,NW,321,0.0,0.0,97,0.00,,,0.16,7,WeatherCatV1.14B232,2013-04-20 14:11:00,
2013-04-20 07:16:00,45.4,44.6,30.20,NW,321,0.0,0.0,97,0.00,,,0.16,7,WeatherCatV1.14B232,2013-04-20 14:16:00,
2013-04-20 07:21:00,45.2,44.4,30.20,NW,321,0.0,0.0,97,0.00,,,0.16,5,WeatherCatV1.14B232,2013-04-20 14:21:00,
2013-04-20 07:26:00,45.2,44.4,30.20,NNW,333,0.0,2.0,97,0.00,,,0.16,7,WeatherCatV1.14B232,2013-04-20 14:26:00,
2013-04-20 07:31:00,45.2,44.4,30.20,NNW,333,0.0,0.0,97,0.00,,,0.16,7,WeatherCatV1.14B232,2013-04-20 14:31:00,
2013-04-20 07:36:00,45.1,44.3,30.20,NNW,333,0.0,0.0,97,0.00,,,0.16,7,WeatherCatV1.14B232,2013-04-20 14:36:00,
2013-04-20 07:41:00,45.1,44.3,30.20,NNW,333,0.0,1.0,97,0.00,,,0.16,7,WeatherCatV1.14B232,2013-04-20 14:41:00,
2013-04-20 07:46:00,45.1,44.3,30.21,NNW,333,0.0,0.0,97,0.00,,,0.16,9,WeatherCatV1.14B232,2013-04-20 14:46:00,
2013-04-20 07:51:00,45.1,44.3,30.21,NNW,333,0.0,0.0,97,0.00,,,0.16,9,WeatherCatV1.14B232,2013-04-20 14:51:00,
2013-04-20 07:56:00,45.1,44.3,30.21,NNW,333,0.0,0.0,97,0.00,,,0.16,12,WeatherCatV1.14B232,2013-04-20 14:56:00,
2013-04-20 08:01:00,45.1,44.3,30.21,NNW,333,0.0,0.0,97,0.00,,,0.16,12,WeatherCatV1.14B232,2013-04-20 15:01:00,
2013-04-20 08:06:00,45.1,44.3,30.21,NNW,333,0.0,0.0,97,0.00,,,0.17,16,WeatherCatV1.14B232,2013-04-20 15:06:00,
2013-04-20 08:11:00,45.1,44.3,30.21,NNW,333,0.0,0.0,97,0.00,,,0.17,19,WeatherCatV1.14B232,2013-04-20 15:11:00,
2013-04-20 08:16:00,45.1,44.3,30.21,NNW,333,0.0,0.0,97,0.00,,,0.17,25,WeatherCatV1.14B232,2013-04-20 15:16:00,
2013-04-20 08:21:00,45.1,44.3,30.21,NNW,333,0.0,0.0,97,0.00,,,0.17,18,WeatherCatV1.14B232,2013-04-20 15:21:00,
2013-04-20 08:26:00,45.1,44.3,30.21,NNW,333,0.0,0.0,97,0.00,,,0.17,16,WeatherCatV1.14B232,2013-04-20 15:26:00,
2013-04-20 08:31:00,45.1,44.3,30.21,NNW,333,0.0,0.0,97,0.00,,,0.17,18,WeatherCatV1.14B232,2013-04-20 15:31:00,
2013-04-20 08:36:00,45.1,44.3,30.21,NNW,333,0.0,0.0,97,0.00,,,0.18,19,WeatherCatV1.14B232,2013-04-20 15:36:00,
2013-04-20 08:41:00,45.2,44.4,30.21,NNW,333,0.0,0.0,97,0.00,,,0.18,21,WeatherCatV1.14B232,2013-04-20 15:41:00,
2013-04-20 08:46:00,45.2,44.4,30.21,NNW,333,0.0,0.0,97,0.00,,,0.18,26,WeatherCatV1.14B232,2013-04-20 15:46:00,
2013-04-20 08:51:00,45.2,44.4,30.21,NNW,333,0.0,0.0,97,0.00,,,0.18,30,WeatherCatV1.14B232,2013-04-20 15:51:00,
2013-04-20 08:56:00,45.2,44.7,30.21,NNW,333,0.0,0.0,98,0.00,,,0.18,30,WeatherCatV1.14B232,2013-04-20 15:56:00,
2013-04-20 09:01:00,45.2,44.4,30.21,NNW,333,0.0,0.0,97,0.00,,,0.18,39,WeatherCatV1.14B232,2013-04-20 16:01:00,
2013-04-20 09:06:00,45.2,44.7,30.21,NNW,333,0.0,0.0,98,0.00,,,0.18,47,WeatherCatV1.14B232,2013-04-20 16:06:00,
2013-04-20 09:11:00,45.4,44.9,30.21,NNW,333,0.0,0.0,98,0.00,,,0.18,46,WeatherCatV1.14B232,2013-04-20 16:11:00,
2013-04-20 09:16:00,45.4,44.9,30.21,NNW,333,0.0,0.0,98,0.00,,,0.18,39,WeatherCatV1.14B232,2013-04-20 16:16:00,
2013-04-20 09:21:00,45.5,45.0,30.21,NNW,333,0.0,0.0,98,0.00,,,0.18,46,WeatherCatV1.14B232,2013-04-20 16:21:00,
2013-04-20 09:26:00,45.5,45.0,30.21,NNW,333,0.0,0.0,98,0.00,,,0.19,54,WeatherCatV1.14B232,2013-04-20 16:26:00,
2013-04-20 09:31:00,45.5,45.0,30.21,NNW,333,0.0,0.0,98,0.00,,,0.19,47,WeatherCatV1.14B232,2013-04-20 16:31:00,
2013-04-20 09:36:00,45.5,45.0,30.21,NNW,333,0.0,0.0,98,0.00,,,0.19,44,WeatherCatV1.14B232,2013-04-20 16:36:00,
2013-04-20 09:41:00,45.5,45.0,30.21,NNW,333,0.0,0.0,98,0.00,,,0.19,37,WeatherCatV1.14B232,2013-04-20 16:41:00,
2013-04-20 09:46:00,45.5,45.0,30.22,NNW,333,0.0,0.0,98,0.00,,,0.19,60,WeatherCatV1.14B232,2013-04-20 16:46:00,
2013-04-20 09:51:00,45.5,45.0,30.22,NNW,333,0.0,0.0,98,0.00,,,0.19,81,WeatherCatV1.14B232,2013-04-20 16:51:00,
2013-04-20 09:56:00,45.7,45.2,30.22,NNW,333,0.0,0.0,98,0.00,,,0.19,63,WeatherCatV1.14B232,2013-04-20 16:56:00,
2013-04-20 10:01:00,45.7,45.2,30.22,NNW,333,0.0,0.0,98,0.00,,,0.19,98,WeatherCatV1.14B232,2013-04-20 17:01:00,
2013-04-20 10:06:00,45.7,45.2,30.22,NNW,333,0.0,0.0,98,0.00,,,0.19,53,WeatherCatV1.14B232,2013-04-20 17:06:00,
2013-04-20 10:11:00,45.7,45.2,30.22,NNW,333,0.0,0.0,98,0.00,,,0.19,74,WeatherCatV1.14B232,2013-04-20 17:11:00,
2013-04-20 10:16:00,45.8,45.3,30.23,NNW,333,0.0,0.0,98,0.00,,,0.19,62,WeatherCatV1.14B232,2013-04-20 17:16:00,
2013-04-20 10:21:00,45.8,45.3,30.23,NNW,333,0.0,0.0,98,0.00,,,0.19,58,WeatherCatV1.14B232,2013-04-20 17:21:00,
2013-04-20 10:26:00,45.8,45.3,30.23,NNW,333,0.0,0.0,98,0.00,,,0.19,54,WeatherCatV1.14B232,2013-04-20 17:26:00,
2013-04-20 10:31:00,45.8,45.3,30.23,NNW,333,0.0,0.0,98,0.00,,,0.19,49,WeatherCatV1.14B232,2013-04-20 17:31:00,
2013-04-20 10:36:00,45.8,45.3,30.23,NNW,333,0.0,0.0,98,0.00,,,0.19,74,WeatherCatV1.14B232,2013-04-20 17:36:00,
2013-04-20 10:41:00,46.0,45.5,30.23,NNW,333,0.0,0.0,98,0.00,,,0.19,54,WeatherCatV1.14B232,2013-04-20 17:41:00,
2013-04-20 10:46:00,46.0,45.5,30.23,NNW,333,0.0,2.0,98,0.00,,,0.19,67,WeatherCatV1.14B232,2013-04-20 17:46:00,
2013-04-20 10:51:00,45.8,45.3,30.23,NNW,333,0.0,1.0,98,0.00,,,0.20,63,WeatherCatV1.14B232,2013-04-20 17:51:00,
2013-04-20 10:56:00,45.8,45.0,30.23,NNW,333,0.0,1.0,97,0.00,,,0.20,62,WeatherCatV1.14B232,2013-04-20 17:56:00,
2013-04-20 11:01:00,45.7,45.2,30.23,NNW,333,0.0,0.0,98,0.00,,,0.20,100,WeatherCatV1.14B232,2013-04-20 18:01:00,
2013-04-20 11:06:00,45.8,45.3,30.23,NNW,333,0.0,0.0,98,0.00,,,0.20,81,WeatherCatV1.14B232,2013-04-20 18:06:00,
2013-04-20 11:11:00,46.0,45.5,30.23,NNW,333,0.0,0.0,98,0.00,,,0.20,95,WeatherCatV1.14B232,2013-04-20 18:11:00,
2013-04-20 11:16:00,46.0,45.5,30.24,NNW,333,0.0,0.0,98,0.00,,,0.20,113,WeatherCatV1.14B232,2013-04-20 18:16:00,
2013-04-20 11:21:00,46.1,45.6,30.24,NNW,333,0.0,0.0,98,0.00,,,0.20,139,WeatherCatV1.14B232,2013-04-20 18:21:00,
2013-04-20 11:26:00,46.2,45.7,30.24,NNW,333,0.0,0.0,98,0.00,,,0.20,158,WeatherCatV1.14B232,2013-04-20 18:26:00,
2013-04-20 11:31:00,46.4,45.9,30.24,NNW,333,0.0,0.0,98,0.00,,,0.20,162,WeatherCatV1.14B232,2013-04-20 18:31:00,
2013-04-20 11:36:00,46.4,45.9,30.24,NNW,333,0.0,0.0,98,0.00,,,0.20,223,WeatherCatV1.14B232,2013-04-20 18:36:00,
2013-04-20 11:41:00,46.5,46.0,30.24,NNW,333,0.0,0.0,98,0.00,,,0.20,229,WeatherCatV1.14B232,2013-04-20 18:41:00,
2013-04-20 11:46:00,47.0,46.5,30.24,NNW,333,1.0,2.0,98,0.00,,,0.20,258,WeatherCatV1.14B232,2013-04-20 18:46:00,
2013-04-20 11:51:00,47.0,46.5,30.24,NE,53,0.0,2.0,98,0.00,,,0.20,318,WeatherCatV1.14B232,2013-04-20 18:51:00,
2013-04-20 11:56:00,46.8,46.3,30.24,NE,53,0.0,0.0,98,0.00,,,0.20,241,WeatherCatV1.14B232,2013-04-20 18:56:00,
2013-04-20 12:01:00,47.4,46.9,30.24,NE,53,0.0,0.0,98,0.00,,,0.20,167,WeatherCatV1.14B232,2013-04-20 19:01:00,
2013-04-20 12:06:00,47.6,47.1,30.24,NE,37,1.0,1.0,98,0.00,,,0.20,163,WeatherCatV1.14B232,2013-04-20 19:06:00,
2013-04-20 12:11:00,47.6,46.8,30.24,NNE,24,0.0,0.0,97,0.00,,,0.20,146,WeatherCatV1.14B232,2013-04-20 19:11:00,
2013-04-20 12:16:00,47.4,46.6,30.24,NNE,24,0.0,0.0,97,0.00,,,0.20,135,WeatherCatV1.14B232,2013-04-20 19:16:00,
2013-04-20 12:21:00,47.1,46.0,30.24,NNE,24,0.0,0.0,96,0.00,,,0.20,144,WeatherCatV1.14B232,2013-04-20 19:21:00,
2013-04-20 12:26:00,47.1,46.0,30.24,NNE,24,0.0,0.0,96,0.00,,,0.20,118,WeatherCatV1.14B232,2013-04-20 19:26:00,
2013-04-20 12:31:00,47.1,46.0,30.24,NNE,24,0.0,0.0,96,0.00,,,0.20,134,WeatherCatV1.14B232,2013-04-20 19:31:00,
2013-04-20 12:36:00,47.1,46.0,30.24,NNE,24,0.0,0.0,96,0.00,,,0.20,169,WeatherCatV1.14B232,2013-04-20 19:36:00,
2013-04-20 12:41:00,47.3,46.2,30.24,NNE,24,1.0,1.0,96,0.00,,,0.20,234,WeatherCatV1.14B232,2013-04-20 19:41:00,
2013-04-20 12:46:00,47.4,46.3,30.24,NNE,24,0.0,0.0,96,0.00,,,0.20,149,WeatherCatV1.14B232,2013-04-20 19:46:00,
2013-04-20 12:51:00,47.6,46.5,30.24,NNE,24,0.0,0.0,96,0.00,,,0.20,114,WeatherCatV1.14B232,2013-04-20 19:51:00,
2013-04-20 12:56:00,47.7,46.6,30.24,NNE,24,0.0,0.0,96,0.00,,,0.20,183,WeatherCatV1.14B232,2013-04-20 19:56:00,
2013-04-20 13:01:00,48.2,47.1,30.23,ENE,67,0.0,1.0,96,0.00,,,0.20,320,WeatherCatV1.14B232,2013-04-20 20:01:00,
2013-04-20 13:06:00,49.2,48.1,30.23,ENE,74,0.0,2.0,96,0.00,,,0.20,492,WeatherCatV1.14B232,2013-04-20 20:06:00,
2013-04-20 13:11:00,49.1,47.2,30.23,East,92,1.0,2.0,93,0.00,,,0.20,299,WeatherCatV1.14B232,2013-04-20 20:11:00,
2013-04-20 13:16:00,49.4,47.5,30.23,SE,125,1.0,2.0,93,0.00,,,0.20,278,WeatherCatV1.14B232,2013-04-20 20:16:00,
2013-04-20 13:21:00,49.5,47.3,30.23,SE,126,0.0,3.0,92,0.00,,,0.20,279,WeatherCatV1.14B232,2013-04-20 20:21:00,
2013-04-20 13:26:00,49.8,47.9,30.23,SE,126,0.0,0.0,93,0.00,,,0.20,515,WeatherCatV1.14B232,2013-04-20 20:26:00,
2013-04-20 13:31:00,50.2,47.4,30.23,SE,126,0.0,1.0,90,0.00,,,0.20,374,WeatherCatV1.14B232,2013-04-20 20:31:00,
2013-04-20 13:36:00,50.1,47.0,30.23,SE,126,0.0,2.0,89,0.00,,,0.20,550,WeatherCatV1.14B232,2013-04-20 20:36:00,
2013-04-20 13:41:00,49.8,46.4,30.23,ESE,123,1.0,2.0,88,0.00,,,0.20,403,WeatherCatV1.14B232,2013-04-20 20:41:00,
2013-04-20 13:46:00,49.8,46.4,30.23,ESE,117,2.0,2.0,88,0.00,,,0.20,438,WeatherCatV1.14B232,2013-04-20 20:46:00,
2013-04-20 13:51:00,50.8,47.7,30.23,ESE,118,0.0,0.0,89,0.00,,,0.20,610,WeatherCatV1.14B232,2013-04-20 20:51:00,
2013-04-20 13:56:00,50.8,46.8,30.23,ESE,116,1.0,1.0,86,0.00,,,0.20,348,WeatherCatV1.14B232,2013-04-20 20:56:00,
2013-04-20 14:01:00,51.3,48.2,30.23,ESE,116,0.0,1.0,89,0.00,,,0.20,408,WeatherCatV1.14B232,2013-04-20 21:01:00,
2013-04-20 14:06:00,51.6,47.5,30.23,East,92,0.0,1.0,86,0.00,,,0.20,309,WeatherCatV1.14B232,2013-04-20 21:06:00,
2013-04-20 14:11:00,51.7,47.3,30.23,ESE,107,0.0,2.0,85,0.00,,,0.20,306,WeatherCatV1.14B232,2013-04-20 21:11:00,
2013-04-20 14:16:00,51.9,48.2,30.22,ESE,107,0.0,0.0,87,0.00,,,0.20,216,WeatherCatV1.14B232,2013-04-20 21:16:00,
2013-04-20 14:21:00,52.2,47.8,30.22,ESE,107,0.0,0.0,85,0.00,,,0.20,207,WeatherCatV1.14B232,2013-04-20 21:21:00,
2013-04-20 14:26:00,52.5,47.8,30.22,ESE,107,0.0,0.0,84,0.00,,,0.20,158,WeatherCatV1.14B232,2013-04-20 21:26:00,
2013-04-20 14:31:00,52.5,46.8,30.23,ESE,107,0.0,0.0,81,0.00,,,0.20,510,WeatherCatV1.14B232,2013-04-20 21:31:00,
2013-04-20 14:36:00,52.0,47.0,30.23,ESE,106,0.0,1.0,83,0.00,,,0.20,1041,WeatherCatV1.14B232,2013-04-20 21:36:00,
2013-04-20 14:41:00,53.1,48.1,30.23,ESE,106,1.0,3.0,83,0.00,,,0.20,1041,WeatherCatV1.14B232,2013-04-20 21:41:00,
2013-04-20 14:46:00,52.9,47.6,30.22,ESE,106,1.0,1.0,82,0.00,,,0.20,334,WeatherCatV1.14B232,2013-04-20 21:46:00,
2013-04-20 14:51:00,53.8,48.1,30.22,ESE,106,0.0,1.0,81,0.00,,,0.20,554,WeatherCatV1.14B232,2013-04-20 21:51:00,
2013-04-20 14:56:00,53.9,46.9,30.22,South,178,0.0,0.0,77,0.00,,,0.20,446,WeatherCatV1.14B232,2013-04-20 21:56:00,
2013-04-20 15:01:00,53.9,47.2,30.21,South,178,0.0,0.0,78,0.00,,,0.20,204,WeatherCatV1.14B232,2013-04-20 22:01:00,
2013-04-20 15:06:00,54.8,46.7,30.21,South,179,0.0,1.0,74,0.00,,,0.20,190,WeatherCatV1.14B232,2013-04-20 22:06:00,
2013-04-20 15:11:00,54.4,48.0,30.21,South,179,0.0,0.0,79,0.00,,,0.20,258,WeatherCatV1.14B232,2013-04-20 22:11:00,
2013-04-20 15:16:00,53.6,47.2,30.22,South,181,0.0,2.0,79,0.00,,,0.20,360,WeatherCatV1.14B232,2013-04-20 22:16:00,
2013-04-20 15:21:00,54.1,49.1,30.22,South,181,1.0,2.0,83,0.00,,,0.20,396,WeatherCatV1.14B232,2013-04-20 22:21:00,
2013-04-20 15:26:00,53.8,47.4,30.22,ESE,104,1.0,1.0,79,0.00,,,0.20,355,WeatherCatV1.14B232,2013-04-20 22:26:00,
2013-04-20 15:31:00,54.2,48.5,30.22,ESE,104,1.0,2.0,81,0.00,,,0.20,248,WeatherCatV1.14B232,2013-04-20 22:31:00,
2013-04-20 15:36:00,53.6,47.2,30.22,ESE,104,0.0,0.0,79,0.00,,,0.20,86,WeatherCatV1.14B232,2013-04-20 22:36:00,
2013-04-20 15:41:00,53.8,48.1,30.22,NNE,24,0.0,2.0,81,0.00,,,0.20,46,WeatherCatV1.14B232,2013-04-20 22:41:00,
2013-04-20 15:46:00,53.6,47.2,30.22,NW,321,2.0,7.0,79,0.00,,,0.20,195,WeatherCatV1.14B232,2013-04-20 22:46:00,
2013-04-20 15:51:00,53.3,47.3,30.22,NW,318,6.0,6.0,80,0.00,,,0.20,237,WeatherCatV1.14B232,2013-04-20 22:51:00,
2013-04-20 15:56:00,53.1,47.4,30.22,NW,321,0.0,3.0,81,0.00,,,0.20,315,WeatherCatV1.14B232,2013-04-20 22:56:00,
2013-04-20 16:01:00,52.6,46.9,30.22,NNW,341,3.0,4.0,81,0.00,,,0.20,316,WeatherCatV1.14B232,2013-04-20 23:01:00,
2013-04-20 16:06:00,52.5,47.5,30.22,NNW,332,2.0,2.0,83,0.00,,,0.20,374,WeatherCatV1.14B232,2013-04-20 23:06:00,
2013-04-20 16:11:00,52.3,46.6,30.22,WNW,298,0.0,3.0,81,0.00,,,0.20,304,WeatherCatV1.14B232,2013-04-20 23:11:00,
2013-04-20 16:16:00,52.5,46.8,30.22,NW,312,0.0,6.0,81,0.00,,,0.20,281,WeatherCatV1.14B232,2013-04-20 23:16:00,
2013-04-20 16:21:00,52.5,46.2,30.22,NW,318,2.0,5.0,79,0.00,,,0.20,223,WeatherCatV1.14B232,2013-04-20 23:21:00,
2013-04-20 16:26:00,52.3,45.6,30.22,North,0,1.0,5.0,78,0.00,,,0.20,176,WeatherCatV1.14B232,2013-04-20 23:26:00,
2013-04-20 16:31:00,52.3,45.6,30.22,SW,235,1.0,2.0,78,0.00,,,0.20,199,WeatherCatV1.14B232,2013-04-20 23:31:00,
2013-04-20 16:36:00,52.3,45.6,30.22,North,355,1.0,5.0,78,0.00,,,0.20,258,WeatherCatV1.14B232,2013-04-20 23:36:00,
2013-04-20 16:41:00,52.5,45.5,30.22,WNW,292,1.0,6.0,77,0.00,,,0.20,269,WeatherCatV1.14B232,2013-04-20 23:41:00,
2013-04-20 16:46:00,52.6,44.9,30.21,NW,321,1.0,5.0,75,0.00,,,0.20,221,WeatherCatV1.14B232,2013-04-20 23:46:00,
2013-04-20 16:51:00,52.6,44.9,30.21,NW,319,5.0,7.0,75,0.00,,,0.20,276,WeatherCatV1.14B232,2013-04-20 23:51:00,
2013-04-20 16:57:00,52.5,44.8,30.21,NNW,337,1.0,4.0,75,0.00,,,0.20,202,WeatherCatV1.14B232,2013-04-20 23:57:00,
2013-04-20 17:02:00,52.3,44.6,30.21,North,5,0.0,4.0,75,0.00,,,0.20,163,WeatherCatV1.14B232,2013-04-21 00:02:00,
2013-04-20 17:07:00,52.3,44.6,30.21,NW,321,2.0,4.0,75,0.00,,,0.20,149,WeatherCatV1.14B232,2013-04-21 00:07:00,
2013-04-20 17:12:00,52.3,44.6,30.21,NW,305,5.0,5.0,75,0.00,,,0.20,142,WeatherCatV1.14B232,2013-04-21 00:12:00,
2013-04-20 17:17:00,52.0,43.6,30.21,West,277,2.0,6.0,73,0.00,,,0.20,132,WeatherCatV1.14B232,2013-04-21 00:17:00,
2013-04-20 17:22:00,51.6,43.9,30.21,NNW,334,4.0,7.0,75,0.00,,,0.20,128,WeatherCatV1.14B232,2013-04-21 00:22:00,
2013-04-20 17:27:00,51.4,43.7,30.21,WNW,299,1.0,5.0,75,0.00,,,0.20,123,WeatherCatV1.14B232,2013-04-21 00:27:00,
2013-04-20 17:32:00,51.1,43.5,30.21,NNW,340,2.0,6.0,75,0.00,,,0.20,91,WeatherCatV1.14B232,2013-04-21 00:32:00,
2013-04-20 17:37:00,51.0,43.7,30.21,NW,324,2.0,3.0,76,0.00,,,0.20,79,WeatherCatV1.14B232,2013-04-21 00:37:00,
2013-04-20 17:42:00,50.8,43.9,30.21,NW,312,2.0,4.0,77,0.00,,,0.20,86,WeatherCatV1.14B232,2013-04-21 00:42:00,
2013-04-20 17:47:00,50.7,43.4,30.21,NNW,332,5.0,7.0,76,0.00,,,0.20,70,WeatherCatV1.14B232,2013-04-21 00:47:00,
2013-04-20 17:52:00,50.4,43.1,30.21,NW,313,3.0,8.0,76,0.00,,,0.20,63,WeatherCatV1.14B232,2013-04-21 00:52:00,
2013-04-20 17:57:00,50.2,43.3,30.21,NW,319,1.0,2.0,77,0.00,,,0.20,62,WeatherCatV1.14B232,2013-04-21 00:57:00,
2013-04-20 18:02:00,50.1,43.5,30.21,NNW,342,1.0,5.0,78,0.00,,,0.20,62,WeatherCatV1.14B232,2013-04-21 01:02:00,
2013-04-20 18:07:00,49.9,43.0,30.21,WNW,302,1.0,4.0,77,0.00,,,0.20,60,WeatherCatV1.14B232,2013-04-21 01:07:00,
2013-04-20 18:12:00,49.8,43.2,30.21,WNW,283,0.0,3.0,78,0.00,,,0.20,49,WeatherCatV1.14B232,2013-04-21 01:12:00,
2013-04-20 18:17:00,49.8,43.2,30.21,NW,323,0.0,3.0,78,0.00,,,0.20,47,WeatherCatV1.14B232,2013-04-21 01:17:00,
2013-04-20 18:22:00,49.6,43.0,30.21,NNW,339,0.0,3.0,78,0.00,,,0.20,46,WeatherCatV1.14B232,2013-04-21 01:22:00,
2013-04-20 18:27:00,49.5,43.3,30.21,NNW,329,0.0,2.0,79,0.00,,,0.20,63,WeatherCatV1.14B232,2013-04-21 01:27:00,
2013-04-20 18:32:00,49.5,43.6,30.21,NNW,329,1.0,1.0,80,0.00,,,0.20,53,WeatherCatV1.14B232,2013-04-21 01:32:00,
2013-04-20 18:37:00,49.4,43.2,30.21,NW,323,2.0,2.0,79,0.00,,,0.20,33,WeatherCatV1.14B232,2013-04-21 01:37:00,
2013-04-20 18:42:00,49.4,43.5,30.21,NNW,338,4.0,4.0,80,0.00,,,0.20,25,WeatherCatV1.14B232,2013-04-21 01:42:00,
2013-04-20 18:47:00,49.2,43.3,30.21,NNW,334,0.0,2.0,80,0.00,,,0.20,25,WeatherCatV1.14B232,2013-04-21 01:47:00,
2013-04-20 18:52:00,49.1,43.2,30.21,NNW,340,0.0,3.0,80,0.00,,,0.20,23,WeatherCatV1.14B232,2013-04-21 01:52:00,
2013-04-20 18:57:00,49.1,43.5,30.21,NNW,341,0.0,1.0,81,0.00,,,0.20,21,WeatherCatV1.14B232,2013-04-21 01:57:00,
2013-04-20 19:02:00,48.9,43.3,30.20,NW,315,3.0,3.0,81,0.00,,,0.20,19,WeatherCatV1.14B232,2013-04-21 02:02:00,
2013-04-20 19:07:00,48.9,43.3,30.20,NNW,339,0.0,2.0,81,0.00,,,0.20,23,WeatherCatV1.14B232,2013-04-21 02:07:00,
2013-04-20 19:12:00,48.8,43.2,30.20,WSW,256,2.0,4.0,81,0.00,,,0.20,19,WeatherCatV1.14B232,2013-04-21 02:12:00,
2013-04-20 19:17:00,48.8,43.6,30.20,NW,314,1.0,4.0,82,0.00,,,0.20,18,WeatherCatV1.14B232,2013-04-21 02:17:00,
2013-04-20 19:22:00,48.6,43.4,30.20,NNW,344,0.0,3.0,82,0.00,,,0.20,14,WeatherCatV1.14B232,2013-04-21 02:22:00,
2013-04-20 19:27:00,48.5,43.3,30.20,NNW,344,3.0,3.0,82,0.00,,,0.20,18,WeatherCatV1.14B232,2013-04-21 02:27:00,
2013-04-20 19:32:00,48.5,43.6,30.20,NW,310,0.0,2.0,83,0.00,,,0.20,12,WeatherCatV1.14B232,2013-04-21 02:32:00,
2013-04-20 19:37:00,48.3,43.4,30.20,NW,305,1.0,2.0,83,0.00,,,0.20,9,WeatherCatV1.14B232,2013-04-21 02:37:00,
2013-04-20 19:42:00,48.3,43.4,30.20,NW,321,0.0,3.0,83,0.00,,,0.20,7,WeatherCatV1.14B232,2013-04-21 02:42:00,
2013-04-20 19:47:00,48.2,43.6,30.20,NNW,327,2.0,3.0,84,0.00,,,0.20,7,WeatherCatV1.14B232,2013-04-21 02:47:00,
2013-04-20 19:52:00,48.2,43.6,30.20,NNW,331,1.0,3.0,84,0.00,,,0.20,5,WeatherCatV1.14B232,2013-04-21 02:52:00,
2013-04-20 19:57:00,48.0,43.4,30.20,NNW,343,2.0,5.0,84,0.00,,,0.20,0,WeatherCatV1.14B232,2013-04-21 02:57:00,
2013-04-20 20:02:00,48.0,43.4,30.20,North,11,0.0,1.0,84,0.00,,,0.20,0,WeatherCatV1.14B232,2013-04-21 03:02:00,
2013-04-20 20:07:00,47.9,43.6,30.20,NNW,347,0.0,3.0,85,0.00,,,0.20,0,WeatherCatV1.14B232,2013-04-21 03:07:00,
2013-04-20 20:12:00,47.7,43.4,30.20,NNW,333,0.0,4.0,85,0.00,,,0.20,0,WeatherCatV1.14B232,2013-04-21 03:12:00,
2013-04-20 20:17:00,47.6,43.3,30.20,NNW,336,0.0,0.0,85,0.00,,,0.20,0,WeatherCatV1.14B232,2013-04-21 03:17:00,
2013-04-20 20:22:00,47.4,43.1,30.20,NNW,342,0.0,0.0,85,0.00,,,0.20,0,WeatherCatV1.14B232,2013-04-21 03:22:00,
2013-04-20 20:27:00,47.4,43.4,30.20,NNW,340,0.0,0.0,86,0.00,,,0.20,0,WeatherCatV1.14B232,2013-04-21 03:27:00,
2013-04-20 20:32:00,47.3,43.3,30.20,NNW,346,0.0,1.0,86,0.00,,,0.20,0,WeatherCatV1.14B232,2013-04-21 03:32:00,
2013-04-20 20:37:00,47.3,43.6,30.20,NNW,346,0.0,0.0,87,0.00,,,0.20,0,WeatherCatV1.14B232,2013-04-21 03:37:00,
2013-04-20 20:42:00,47.1,43.4,30.20,NNW,346,0.0,0.0,87,0.00,,,0.20,0,WeatherCatV1.14B232,2013-04-21 03:42:00,
2013-04-20 20:47:00,47.1,43.4,30.21,NNW,346,0.0,0.0,87,0.00,,,0.20,0,WeatherCatV1.14B232,2013-04-21 03:47:00,
2013-04-20 20:52:00,47.0,43.3,30.21,NNW,346,0.0,0.0,87,0.00,,,0.20,0,WeatherCatV1.14B232,2013-04-21 03:52:00,
2013-04-20 20:57:00,47.0,43.6,30.21,NNW,346,0.0,0.0,88,0.00,,,0.20,0,WeatherCatV1.14B232,2013-04-21 03:57:00,
2013-04-20 21:01:00,47.0,43.6,30.21,NNW,346,0.0,0.0,88,0.00,,,0.20,0,WeatherCatV1.14B232,2013-04-21 04:01:00,
2013-04-20 21:06:00,47.0,43.6,30.21,NNW,346,0.0,0.0,88,0.00,,,0.20,0,WeatherCatV1.14B232,2013-04-21 04:06:00,
2013-04-20 21:11:00,46.8,43.4,30.21,NNW,346,0.0,0.0,88,0.00,,,0.20,0,WeatherCatV1.14B232,2013-04-21 04:11:00,
2013-04-20 21:16:00,46.8,43.7,30.21,NNW,346,0.0,0.0,89,0.00,,,0.20,0,WeatherCatV1.14B232,2013-04-21 04:16:00,
2013-04-20 21:21:00,46.8,43.7,30.21,NNW,346,0.0,0.0,89,0.00,,,0.20,0,WeatherCatV1.14B232,2013-04-21 04:21:00,
2013-04-20 21:26:00,46.8,43.7,30.21,NNW,346,0.0,0.0,89,0.00,,,0.20,0,WeatherCatV1.14B232,2013-04-21 04:26:00,
2013-04-20 21:31:00,46.7,43.6,30.21,NNW,346,0.0,0.0,89,0.00,,,0.20,0,WeatherCatV1.14B232,2013-04-21 04:31:00,
2013-04-20 21:36:00,46.7,43.6,30.21,NNW,346,0.0,0.0,89,0.00,,,0.20,0,WeatherCatV1.14B232,2013-04-21 04:36:00,
2013-04-20 21:41:00,46.7,43.9,30.21,NNW,346,0.0,0.0,90,0.00,,,0.20,0,WeatherCatV1.14B232,2013-04-21 04:41:00,
2013-04-20 21:46:00,46.7,43.9,30.22,NNW,346,0.0,0.0,90,0.00,,,0.20,0,WeatherCatV1.14B232,2013-04-21 04:46:00,
2013-04-20 21:51:00,46.5,43.7,30.22,NNW,346,0.0,0.0,90,0.00,,,0.20,0,WeatherCatV1.14B232,2013-04-21 04:51:00,
2013-04-20 21:56:00,46.5,44.0,30.22,NNW,346,0.0,0.0,91,0.00,,,0.20,0,WeatherCatV1.14B232,2013-04-21 04:56:00,
2013-04-20 22:01:00,46.5,44.0,30.22,NNW,346,0.0,0.0,91,0.00,,,0.21,0,WeatherCatV1.14B232,2013-04-21 05:01:00,
2013-04-20 22:06:00,46.5,44.0,30.22,NNW,346,0.0,0.0,91,0.00,,,0.21,0,WeatherCatV1.14B232,2013-04-21 05:06:00,
2013-04-20 22:11:00,46.5,44.0,30.22,NNW,346,0.0,0.0,91,0.00,,,0.21,0,WeatherCatV1.14B232,2013-04-21 05:11:00,
2013-04-20 22:16:00,46.4,43.9,30.22,NNW,346,0.0,0.0,91,0.00,,,0.21,0,WeatherCatV1.14B232,2013-04-21 05:16:00,
2013-04-20 22:21:00,46.4,43.9,30.22,NNW,346,0.0,0.0,91,0.00,,,0.22,0,WeatherCatV1.14B232,2013-04-21 05:21:00,
2013-04-20 22:26:00,46.4,44.2,30.22,NNW,346,0.0,0.0,92,0.00,,,0.22,0,WeatherCatV1.14B232,2013-04-21 05:26:00,
2013-04-20 22:31:00,46.4,44.2,30.23,NNW,346,0.0,0.0,92,0.08,,,0.23,0,WeatherCatV1.14B232,2013-04-21 05:31:00,
2013-04-20 22:36:00,46.2,44.0,30.23,NNW,346,0.0,0.0,92,0.07,,,0.23,0,WeatherCatV1.14B232,2013-04-21 05:36:00,
2013-04-20 22:39:00,46.2,44.0,30.23,NNW,346,0.0,0.0,92,0.05,,,0.23,0,WeatherCatV1.14B232,2013-04-21 05:39:00,
2013-04-20 22:44:00,46.2,44.0,30.23,NNW,346,0.0,0.0,92,0.00,,,0.23,0,WeatherCatV1.14B232,2013-04-21 05:44:00,
2013-04-20 22:49:00,46.1,43.9,30.23,NNW,346,0.0,0.0,92,0.00,,,0.23,0,WeatherCatV1.14B232,2013-04-21 05:49:00,
2013-04-20 22:54:00,46.1,43.9,30.23,NNW,346,0.0,0.0,92,0.00,,,0.23,0,WeatherCatV1.14B232,2013-04-21 05:54:00,
2013-04-20 22:59:00,46.1,43.9,30.23,NNW,346,0.0,0.0,92,0.00,,,0.23,0,WeatherCatV1.14B232,2013-04-21 05:59:00,
2013-04-20 23:05:00,46.0,43.8,30.23,NNW,346,0.0,0.0,92,0.00,,,0.23,0,WeatherCatV1.14B232,2013-04-21 06:05:00,
2013-04-20 23:10:00,46.0,43.8,30.23,NNW,346,0.0,0.0,92,0.00,,,0.24,0,WeatherCatV1.14B232,2013-04-21 06:10:00,
2013-04-20 23:15:00,46.0,44.1,30.23,NNW,346,0.0,0.0,93,0.09,,,0.25,0,WeatherCatV1.14B232,2013-04-21 06:15:00,
2013-04-20 23:20:00,45.8,43.9,30.23,NNW,346,0.0,0.0,93,0.15,,,0.26,0,WeatherCatV1.14B232,2013-04-21 06:20:00,
2013-04-20 23:25:00,45.8,43.9,30.23,NNW,346,0.0,0.0,93,0.07,,,0.26,0,WeatherCatV1.14B232,2013-04-21 06:25:00,
2013-04-20 23:30:00,45.8,43.9,30.23,NNW,346,0.0,0.0,93,0.05,,,0.26,0,WeatherCatV1.14B232,2013-04-21 06:30:00,
2013-04-20 23:35:00,45.8,43.9,30.23,NNW,346,0.0,0.0,93,0.00,,,0.26,0,WeatherCatV1.14B232,2013-04-21 06:35:00,
2013-04-20 23:40:00,45.7,43.8,30.23,NNW,346,0.0,0.0,93,0.00,,,0.26,0,WeatherCatV1.14B232,2013-04-21 06:40:00,
2013-04-20 23:45:00,45.7,43.8,30.22,NNW,346,0.0,0.0,93,0.00,,,0.26,0,WeatherCatV1.14B232,2013-04-21 06:45:00,
2013-04-20 23:50:00,45.7,43.8,30.22,NNW,346,0.0,0.0,93,0.00,,,0.26,0,WeatherCatV1.14B232,2013-04-21 06:50:00,
2013-04-20 23:55:00,45.5,43.9,30.22,NNW,346,0.0,0.0,94,0.00,,,0.26,0,WeatherCatV1.14B232,2013-04-21 06:55:00,